GW2929 Weather Reports


Display with metric or nautical units.
time (UTC)temp
F
wind
direction
speed
MPH
gust
MPH
rain 1hr
in
rain 24hr
in
rain mn
in
humidity
%
barometer
mb
20260508092318 72 257 2.0 3.0 0.00 0.00 0.00 99 1006.7
20260508091816 72 228 2.0 3.0 0.00 0.00 0.00 99 1006.8
20260508091311 72 225 0.0 0.0 0.00 0.00 0.00 99 1006.9
20260508090810 73 283 0.0 0.0 0.00 0.00 0.00 99 1007.1
20260508090308 73 260 0.0 0.0 0.00 0.00 0.00 99 1007.0
20260508085803 73 285 2.0 2.0 0.00 0.00 0.00 99 1007.0
20260508085300 73 281 1.0 2.0 0.00 0.00 0.00 99 1006.9
20260508084756 73 242 1.0 1.0 0.00 0.00 0.00 99 1006.8
20260508084254 73 266 2.0 2.0 0.00 0.00 0.00 99 1006.9
20260508083751 73 286 1.0 2.0 0.00 0.00 0.00 99 1006.8
20260508083249 73 264 2.0 2.0 0.00 0.00 0.00 99 1006.8
20260508082748 73 222 0.0 0.0 0.00 0.00 0.00 99 1006.7
20260508082246 73 215 0.0 0.0 0.00 0.00 0.00 99 1006.8
20260508081743 73 287 0.0 2.0 0.00 0.00 0.00 99 1007.1
20260508081240 73 233 0.0 0.0 0.00 0.00 0.00 99 1007.4
20260508080737 73 248 0.0 0.0 0.00 0.00 0.00 99 1007.6
20260508080235 73 234 0.0 0.0 0.00 0.00 0.00 99 1007.8
20260508075731 73 219 0.0 0.0 0.00 0.00 0.00 99 1007.8
20260508075228 73 229 0.0 0.0 0.00 0.00 0.00 99 1007.7
20260508074726 73 210 0.0 0.0 0.00 0.00 0.00 99 1007.7
20260508074223 73 200 0.0 0.0 0.00 0.00 0.00 99 1007.5
20260508073720 73 213 0.0 0.0 0.00 0.00 0.00 99 1007.7
20260508073218 73 205 0.0 0.0 0.00 0.00 0.00 99 1007.7
20260508072714 73 218 0.0 0.0 0.00 0.00 0.00 99 1007.8
20260508072211 73 218 0.0 0.0 0.00 0.00 0.00 99 1007.8
20260508071708 73 216 0.0 0.0 0.00 0.00 0.00 99 1007.9
20260508071206 73 218 0.0 0.0 0.00 0.00 0.00 99 1008.0
20260508070703 73 218 0.0 0.0 0.00 0.00 0.00 99 1008.1
20260508070202 73 212 0.0 0.0 0.00 0.00 0.00 99 1007.7
20260508065659 73 213 0.0 0.0 0.00 0.00 0.00 99 1007.8
20260508065157 73 215 0.0 0.0 0.00 0.00 0.00 99 1007.8
20260508064654 73 29 2.0 3.0 0.00 0.00 0.00 99 1007.6
20260508064152 73 47 3.0 3.0 0.00 0.00 0.00 99 1007.8
20260508063649 73 202 0.0 0.0 0.00 0.00 0.00 99 1008.1
20260508063147 73 219 0.0 0.0 0.00 0.00 0.00 99 1008.2
20260508062644 73 210 0.0 0.0 0.00 0.00 0.00 99 1008.2
20260508062141 73 196 0.0 1.0 0.00 0.00 0.00 98 1008.5
20260508061638 74 142 1.0 2.0 0.00 0.00 0.00 98 1008.4
20260508061136 73 215 0.0 0.0 0.00 0.00 0.00 98 1008.4
20260508060632 74 223 0.0 1.0 0.00 0.00 0.00 97 1008.1
20260508060130 74 231 1.0 1.0 0.00 0.00 0.00 97 1007.8
20260508055625 74 307 1.0 2.0 0.00 0.00 0.00 97 1007.9
20260508055122 73 244 2.0 2.0 0.00 0.00 0.00 97 1007.7
20260508054618 73 8 2.0 3.0 0.00 0.00 0.00 97 1007.9
20260508054116 73 208 0.0 0.0 0.00 0.00 0.00 97 1008.0
20260508053613 73 64 1.0 2.0 0.00 0.00 0.00 97 1008.2
20260508053111 73 261 1.0 2.0 0.00 0.00 0.00 96 1007.9
20260508052608 73 251 2.0 3.0 0.00 0.00 0.00 96 1007.8
20260508052105 73 205 2.0 3.0 0.00 0.00 0.00 96 1007.6
20260508051601 73 345 2.0 3.0 0.00 0.00 0.00 96 1007.8
20260508051056 73 194 1.0 2.0 0.00 0.00 0.00 96 1007.6
20260508050553 73 220 0.0 0.0 0.00 0.00 0.00 96 1008.2
20260508050050 73 218 1.0 1.0 0.00 0.00 0.00 96 1008.6
20260508045546 73 200 0.0 1.0 0.00 0.00 0.00 96 1009.0
20260508045044 73 202 0.0 1.0 0.00 0.00 0.00 96 1009.2
20260508044541 73 181 2.0 2.0 0.00 0.00 0.00 96 1009.1
20260508044037 73 190 2.0 2.0 0.00 0.00 0.00 96 1009.3
20260508043534 73 216 0.0 0.0 0.00 0.00 0.00 96 1009.3
20260508043031 73 198 1.0 1.0 0.00 0.00 0.00 96 1008.2
20260508042528 73 347 4.0 6.0 0.00 0.00 0.00 96 1007.5
20260508042025 73 243 2.0 3.0 0.00 0.00 0.00 96 1007.1
20260508041521 73 168 6.0 10.0 0.00 0.00 0.00 96 1006.8
20260508041018 73 308 2.0 3.0 0.00 0.00 0.00 95 1006.4
20260508040515 73 312 4.0 6.0 0.00 0.00 0.00 95 1005.9
20260508040013 72 213 3.0 6.0 0.00 0.00 0.00 95 1006.4
20260508035509 72 334 2.0 2.0 0.00 0.00 0.00 95 1006.6
20260508035006 72 356 3.0 3.0 0.00 0.00 0.00 95 1007.3
20260508034504 72 10 4.0 6.0 0.00 0.00 0.00 95 1007.5
20260508034000 72 165 1.0 1.0 0.00 0.00 0.00 94 1007.5
20260508033458 72 12 2.0 4.0 0.00 0.00 0.00 93 1008.0
20260508032955 72 41 3.0 4.0 0.00 0.00 0.00 93 1008.3
20260508032453 72 350 3.0 3.0 0.00 0.00 0.00 92 1008.2
20260508031949 71 233 2.0 3.0 0.00 0.00 0.00 92 1008.2
20260508031447 72 345 4.0 4.0 0.00 0.00 0.00 92 1008.4
20260508030942 72 353 3.0 3.0 0.00 0.00 0.00 91 1008.8
20260508030440 72 291 4.0 6.0 0.00 0.00 0.00 91 1008.8
20260508025937 72 60 2.0 3.0 0.00 0.00 0.00 91 1009.0
20260508025433 72 291 2.0 4.0 0.00 0.00 0.00 90 1008.9
20260508024931 72 24 2.0 3.0 0.00 0.00 0.00 90 1009.2
20260508024427 72 256 0.0 0.0 0.00 0.00 0.00 89 1009.1
20260508023923 72 137 1.0 2.0 0.00 0.00 0.00 89 1008.9
20260508023420 72 285 2.0 2.0 0.00 0.00 0.00 89 1009.1
20260508022917 72 34 2.0 2.0 0.00 0.00 0.00 89 1009.1
20260508022413 72 339 2.0 3.0 0.00 0.00 0.00 88 1008.9
20260508021910 72 111 1.0 2.0 0.00 0.00 0.00 88 1008.9
20260508021406 72 19 2.0 4.0 0.00 0.00 0.00 87 1008.7
20260508020902 72 227 0.0 0.0 0.00 0.00 0.00 87 1009.1
20260508020400 72 234 1.0 1.0 0.00 0.00 0.00 87 1009.0
20260508015857 72 249 1.0 1.0 0.00 0.00 0.00 87 1009.0
20260508015355 72 221 0.0 1.0 0.00 0.00 0.00 87 1008.8
20260508014851 72 252 1.0 1.0 0.00 0.00 0.00 87 1009.0
20260508014348 72 227 1.0 2.0 0.00 0.00 0.00 87 1008.7
20260508013843 72 296 2.0 2.0 0.00 0.00 0.00 87 1008.9
20260508013340 72 229 0.0 1.0 0.00 0.00 0.00 87 1008.5
20260508012837 72 220 1.0 1.0 0.00 0.00 0.00 87 1008.7
20260508012335 72 293 1.0 1.0 0.00 0.00 0.00 87 1008.3
20260508011832 72 254 2.0 3.0 0.00 0.00 0.00 87 1008.4
20260508011330 72 33 3.0 4.0 0.00 0.00 0.00 87 1007.9
20260508010827 72 235 1.0 1.0 0.00 0.00 0.00 86 1008.1
20260508010324 72 345 3.0 3.0 0.00 0.00 0.00 86 1008.3
20260508005821 72 222 0.0 1.0 0.00 0.00 0.00 87 1008.3
20260508005318 73 229 0.0 0.0 0.00 0.00 0.00 86 1008.3
20260508004815 73 222 0.0 0.0 0.00 0.00 0.00 86 1008.2
20260508004311 73 236 0.0 1.0 0.00 0.00 0.00 86 1008.0
20260508003807 73 322 3.0 4.0 0.00 0.00 0.00 86 1008.0
20260508003305 73 221 0.0 1.0 0.00 0.00 0.00 86 1007.9
20260508002801 73 68 2.0 2.0 0.00 0.00 0.00 86 1008.0
20260508002258 73 322 3.0 4.0 0.00 0.00 0.00 86 1007.8
20260508001754 73 297 1.0 1.0 0.00 0.00 0.00 86 1007.9
20260508001250 73 287 1.0 2.0 0.00 0.00 0.00 86 1008.0
20260508000746 73 278 0.0 0.0 0.00 0.00 0.00 86 1007.9
20260508000243 73 357 2.0 6.0 0.00 0.00 0.00 85 1007.8
20260507235739 73 277 2.0 3.0 0.00 0.00 0.00 85 1007.9
20260507235238 73 61 2.0 3.0 0.00 0.00 0.00 85 1007.7
20260507234734 73 230 1.0 1.0 0.00 0.00 0.00 85 1007.9
20260507234231 73 10 2.0 3.0 0.00 0.00 0.00 85 1007.8
20260507233727 73 216 0.0 0.0 0.00 0.00 0.00 85 1007.8
20260507233225 73 231 3.0 4.0 0.00 0.00 0.00 84 1007.8
20260507232722 73 342 2.0 2.0 0.00 0.00 0.00 84 1007.7
20260507232219 73 299 2.0 2.0 0.00 0.00 0.00 84 1008.0
20260507231716 73 217 3.0 4.0 0.00 0.00 0.00 84 1008.1
20260507231213 74 249 1.0 2.0 0.00 0.00 0.00 84 1007.8
20260507230709 73 219 0.0 1.0 0.00 0.00 0.00 84 1008.2
20260507230207 74 215 2.0 3.0 0.00 0.00 0.00 84 1007.7
20260507225706 74 236 1.0 2.0 0.00 0.00 0.00 84 1007.8
20260507225203 74 271 2.0 2.0 0.00 0.00 0.00 84 1007.8
20260507224659 74 263 1.0 2.0 0.00 0.00 0.00 84 1007.8
20260507224155 74 214 1.0 1.0 0.00 0.00 0.00 84 1007.7
20260507223652 74 30 2.0 2.0 0.00 0.00 0.00 84 1007.7
20260507223149 74 246 0.0 2.0 0.00 0.00 0.00 84 1007.6
20260507222646 74 306 1.0 1.0 0.00 0.00 0.00 84 1007.7
20260507222142 74 134 0.0 1.0 0.00 0.00 0.00 84 1007.8
20260507221638 74 279 2.0 2.0 0.00 0.00 0.00 84 1008.0
20260507221134 74 299 4.0 4.0 0.00 0.00 0.00 84 1007.7
20260507220632 74 279 4.0 7.0 0.00 0.00 0.00 84 1007.7
20260507220130 74 246 2.0 2.0 0.00 0.00 0.00 84 1007.7
20260507215625 73 89 3.0 4.0 0.00 0.00 0.00 84 1007.9
20260507215123 73 293 4.0 6.0 0.00 0.00 0.00 84 1007.6
20260507214620 74 329 2.0 3.0 0.00 0.00 0.00 84 1007.4
20260507214117 74 344 5.0 7.0 0.00 0.00 0.00 84 1007.8
20260507213613 74 271 2.0 4.0 0.00 0.00 0.00 84 1007.7
20260507213110 74 167 2.0 3.0 0.00 0.00 0.00 84 1007.6
20260507212606 74 20 1.0 3.0 0.00 0.00 0.00 83 1007.8
20260507212103 74 300 3.0 4.0 0.00 0.00 0.00 84 1007.8
20260507211600 74 40 3.0 4.0 0.00 0.00 0.00 83 1008.0
20260507211055 74 216 1.0 1.0 0.00 0.00 0.00 84 1007.9
20260507210553 74 197 2.0 2.0 0.00 0.00 0.00 84 1007.7
20260507210050 73 341 6.0 8.0 0.00 0.00 0.00 85 1007.9
20260507205546 73 289 2.0 3.0 0.00 0.00 0.00 85 1008.2
20260507205043 73 192 2.0 3.0 0.00 0.00 0.00 86 1008.2
20260507204539 73 296 4.0 6.0 0.00 0.00 0.00 86 1008.1
20260507204037 73 264 2.0 2.0 0.00 0.00 0.00 86 1008.3
20260507203535 73 63 2.0 2.0 0.00 0.00 0.00 86 1008.4
20260507203032 73 223 1.0 2.0 0.00 0.00 0.00 86 1008.4
20260507202527 72 237 2.0 2.0 0.00 0.00 0.00 86 1008.5
20260507202024 72 213 1.0 1.0 0.00 0.00 0.00 87 1008.7
20260507201519 72 145 2.0 2.0 0.00 0.00 0.00 87 1008.7
20260507201016 72 16 4.0 6.0 0.00 0.00 0.00 87 1008.6
20260507200511 72 90 1.0 2.0 0.00 0.00 0.00 86 1008.8
20260507200008 72 323 2.0 3.0 0.00 0.00 0.00 86 1009.0
20260507195505 72 12 1.0 2.0 0.00 0.00 0.00 86 1008.9
20260507195003 72 351 4.0 6.0 0.00 0.00 0.00 86 1008.9
20260507194459 73 28 3.0 3.0 0.00 0.00 0.00 85 1008.8
20260507193955 73 284 2.0 2.0 0.00 0.00 0.00 85 1008.9
20260507193452 73 288 2.0 4.0 0.00 0.00 0.00 85 1009.0
20260507192949 73 300 3.0 7.0 0.00 0.00 0.00 85 1009.1
20260507192444 73 38 2.0 3.0 0.00 0.00 0.00 86 1009.1
20260507191942 73 42 2.0 4.0 0.00 0.00 0.00 86 1009.1
20260507191438 72 24 2.0 2.0 0.00 0.00 0.00 86 1009.4
20260507190934 72 248 3.0 6.0 0.00 0.00 0.00 85 1009.5
20260507190432 73 236 3.0 4.0 0.00 0.00 0.00 85 1009.6
20260507185931 72 0 3.0 4.0 0.00 0.00 0.00 85 1009.5
20260507185428 72 237 2.0 2.0 0.00 0.00 0.00 86 1009.6
20260507184924 72 310 1.0 3.0 0.00 0.00 0.00 87 1009.8
20260507184422 72 346 1.0 2.0 0.00 0.00 0.00 87 1009.9
20260507183920 71 272 3.0 6.0 0.00 0.00 0.00 86 1009.7
20260507183416 72 333 3.0 3.0 0.00 0.00 0.00 86 1010.0
20260507182914 71 201 2.0 3.0 0.00 0.00 0.00 86 1009.9
20260507182409 71 261 2.0 2.0 0.00 0.00 0.00 87 1010.2
20260507181906 71 263 1.0 2.0 0.00 0.00 0.00 87 1010.1
20260507181402 71 317 3.0 6.0 0.00 0.00 0.00 87 1010.2
20260507180859 71 17 2.0 2.0 0.00 0.00 0.00 87 1010.3
20260507180355 71 241 2.0 3.0 0.00 0.00 0.00 87 1010.3
20260507175852 71 287 4.0 6.0 0.00 0.00 0.00 87 1010.3
20260507175348 71 46 3.0 4.0 0.00 0.00 0.00 87 1010.6
20260507174846 71 203 2.0 2.0 0.00 0.00 0.00 87 1010.5
20260507174343 71 40 4.0 7.0 0.00 0.00 0.00 87 1010.4
20260507173841 71 250 2.0 3.0 0.00 0.00 0.00 87 1010.3
20260507173338 71 274 4.0 7.0 0.00 0.00 0.00 86 1010.4
20260507172834 71 317 2.0 3.0 0.00 0.00 0.00 87 1010.3
20260507172331 71 235 1.0 2.0 0.00 0.00 0.00 87 1010.6
20260507171827 71 330 4.0 6.0 0.00 0.00 0.00 87 1010.6
20260507171324 71 232 2.0 2.0 0.00 0.00 0.00 87 1010.2
20260507170821 71 209 1.0 2.0 0.00 0.00 0.00 87 1010.3
20260507170317 71 262 2.0 3.0 0.00 0.00 0.00 86 1010.3
20260507165813 71 221 1.0 2.0 0.00 0.00 0.00 87 1010.3
20260507165309 71 273 6.0 7.0 0.00 0.00 0.00 87 1010.0
20260507164805 71 274 4.0 6.0 0.00 0.00 0.00 86 1009.8
20260507164303 72 288 5.0 8.0 0.00 0.00 0.00 86 1009.9
20260507163800 72 202 2.0 2.0 0.00 0.00 0.00 86 1009.8
20260507163257 72 262 3.0 6.0 0.00 0.00 0.00 86 1009.6
20260507162753 71 274 3.0 6.0 0.00 0.00 0.00 86 1009.7
20260507162249 72 286 3.0 4.0 0.00 0.00 0.00 86 1009.8
20260507161746 71 219 3.0 6.0 0.00 0.00 0.00 87 1009.8
20260507161243 71 318 4.0 6.0 0.00 0.00 0.00 86 1009.8
20260507160738 71 256 2.0 2.0 0.00 0.00 0.00 87 1009.7
20260507160235 71 272 4.0 7.0 0.00 0.00 0.00 87 1009.8
20260507155731 71 1 2.0 3.0 0.00 0.00 0.00 88 1009.8
20260507155227 70 259 4.0 7.0 0.00 0.00 0.00 88 1009.7
20260507154724 70 306 3.0 4.0 0.00 0.00 0.00 88 1009.6
20260507154222 71 247 2.0 4.0 0.00 0.00 0.00 87 1009.6
20260507153718 71 158 2.0 3.0 0.00 0.00 0.00 87 1009.4
20260507153215 71 242 1.0 2.0 0.00 0.00 0.00 87 1009.6
20260507152711 70 281 2.0 2.0 0.00 0.00 0.00 87 1009.6
20260507152207 70 208 1.0 1.0 0.00 0.00 0.00 88 1009.5
20260507151703 70 249 4.0 6.0 0.00 0.00 0.00 88 1009.6
20260507151200 70 33 2.0 3.0 0.00 0.00 0.00 88 1009.9
20260507150657 70 221 0.0 1.0 0.00 0.00 0.00 88 1009.6
20260507150154 70 244 3.0 3.0 0.00 0.00 0.00 88 1009.9
20260507145649 70 236 2.0 2.0 0.00 0.00 0.00 88 1009.9
20260507145147 70 322 2.0 2.0 0.00 0.00 0.00 88 1009.8
20260507144643 70 274 5.0 8.0 0.00 0.00 0.00 88 1009.7
20260507144142 70 243 2.0 2.0 0.00 0.00 0.00 89 1009.7
20260507143638 70 20 2.0 3.0 0.00 0.00 0.00 89 1009.6
20260507143135 70 216 0.0 0.0 0.00 0.00 0.00 89 1009.6
20260507142630 70 296 2.0 4.0 0.00 0.00 0.00 89 1009.5
20260507142127 70 144 2.0 2.0 0.00 0.00 0.00 89 1009.6
20260507141623 70 66 1.0 1.0 0.00 0.00 0.00 89 1009.6
20260507141120 70 291 1.0 1.0 0.00 0.00 0.00 89 1009.3
20260507140617 70 262 2.0 2.0 0.00 0.00 0.00 89 1009.4
20260507140114 70 236 2.0 2.0 0.00 0.00 0.00 89 1009.5
20260507135611 70 21 2.0 2.0 0.00 0.00 0.00 89 1009.5
20260507135109 70 297 2.0 4.0 0.00 0.00 0.00 88 1009.2
20260507134605 70 73 0.0 1.0 0.00 0.00 0.00 89 1009.3
20260507134101 70 311 4.0 4.0 0.00 0.00 0.00 89 1009.1
20260507133557 70 269 2.0 3.0 0.00 0.00 0.00 90 1009.0
20260507133055 70 234 1.0 2.0 0.00 0.00 0.00 90 1009.1
20260507132552 70 254 2.0 3.0 0.00 0.00 0.00 89 1009.0
20260507132048 70 234 2.0 2.0 0.00 0.00 0.00 90 1008.6
20260507131545 70 249 3.0 3.0 0.00 0.00 0.00 90 1008.6
20260507131042 70 40 1.0 2.0 0.00 0.00 0.00 90 1008.5
20260507130539 70 227 1.0 2.0 0.00 0.00 0.00 90 1008.5
20260507130037 70 236 2.0 3.0 0.00 0.00 0.00 90 1008.6
20260507125535 70 254 0.0 2.0 0.00 0.00 0.00 90 1008.6
20260507125032 70 325 3.0 4.0 0.00 0.00 0.00 90 1008.7
20260507124529 70 232 1.0 1.0 0.00 0.00 0.00 91 1008.3
20260507124027 70 243 1.0 2.0 0.00 0.00 0.00 91 1008.1
20260507123525 70 241 2.0 2.0 0.00 0.00 0.00 91 1008.3
20260507123021 70 25 3.0 6.0 0.00 0.00 0.00 91 1008.0
20260507122516 70 237 1.0 2.0 0.00 0.00 0.00 90 1007.9
20260507122013 70 118 1.0 1.0 0.00 0.00 0.00 90 1008.0
20260507121508 70 303 2.0 3.0 0.00 0.00 0.00 90 1007.8
20260507121004 70 323 1.0 2.0 0.00 0.00 0.00 90 1007.7
20260507120501 70 320 2.0 2.0 0.00 0.00 0.00 90 1007.6
20260507115957 70 320 2.0 2.0 0.00 0.00 0.00 90 1007.8
20260507115454 70 320 3.0 6.0 0.00 0.00 0.00 90 1007.7
20260507114949 70 320 3.0 4.0 0.00 0.00 0.00 90 1007.3
20260507114446 70 320 3.0 3.0 0.00 0.00 0.00 91 1007.5
20260507113943 70 320 1.0 1.0 0.00 0.00 0.00 91 1007.1
20260507113440 70 320 3.0 7.0 0.00 0.00 0.00 91 1007.1
20260507112938 70 320 1.0 2.0 0.00 0.00 0.00 91 1007.1
20260507112435 70 320 2.0 4.0 0.00 0.00 0.00 91 1007.1
20260507111932 70 320 0.0 0.0 0.00 0.00 0.00 91 1007.0
20260507111429 70 320 2.0 2.0 0.00 0.00 0.00 91 1006.9
20260507110925 70 310 4.0 6.0 0.00 0.00 0.00 90 1007.2
20260507110421 70 306 3.0 4.0 0.00 0.00 0.00 90 1006.8
20260507105918 70 316 3.0 6.0 0.00 0.00 0.00 90 1006.7
20260507105415 70 302 5.0 7.0 0.00 0.00 0.00 91 1006.8
20260507104912 71 297 2.0 3.0 0.00 0.00 0.00 91 1007.2
20260507104409 71 253 3.0 4.0 0.00 0.00 0.00 90 1007.0
20260507103904 71 2 3.0 6.0 0.00 0.00 0.00 90 1007.3
20260507103402 71 229 1.0 1.0 0.00 0.00 0.00 90 1007.6
20260507102857 71 312 2.0 3.0 0.00 0.00 0.00 90 1007.6
20260507102354 71 147 0.0 1.0 0.00 0.00 0.00 90 1007.7
20260507101851 71 249 0.0 1.0 0.00 0.00 0.00 89 1007.7
20260507101350 71 233 2.0 4.0 0.00 0.00 0.00 89 1007.6
20260507100848 71 257 2.0 2.0 0.00 0.00 0.00 89 1007.7
20260507100346 71 211 1.0 2.0 0.00 0.00 0.00 89 1007.5
20260507095844 71 178 0.0 1.0 0.00 0.00 0.00 89 1007.4
20260507095340 71 234 1.0 1.0 0.00 0.00 0.00 90 1007.4
20260507094837 71 236 1.0 1.0 0.00 0.00 0.00 90 1007.4
20260507094333 71 188 0.0 1.0 0.00 0.00 0.00 89 1007.4
20260507093831 71 256 2.0 3.0 0.00 0.00 0.00 89 1007.4
20260507093329 71 305 2.0 4.0 0.00 0.00 0.00 89 1007.4
20260507092827 71 164 0.0 1.0 0.00 0.00 0.00 89 1007.0